owner,sensor,date,latitude,longitude,vertical_datum,direction_of_sea_water_velocity,sea_water_speed,upward_sea_water_velocity,qcFlag 
TABS,ioos:station:wmo:42050:1,2017-02-01T00:00:00Z,28.8425,-94.2433,2.0,263.2244169,23.56455813,-99999.0,'11111222,11111222,99999999' 
TABS,ioos:station:wmo:42050:1,2017-02-01T00:30:00Z,28.8425,-94.2433,2.0,201.3729083,27.32954628,-99999.0,'11111222,11111222,99999999' 
TABS,ioos:station:wmo:42050:1,2017-02-01T01:00:00Z,28.8425,-94.2433,2.0,344.9252209,19.53217858,-99999.0,'11111222,11111222,99999999' 
TABS,ioos:station:wmo:42050:1,2017-02-01T01:30:00Z,28.8425,-94.2433,2.0,198.8809526,14.61649069,-99999.0,'11111222,11111222,99999999' 
TABS,ioos:station:wmo:42050:1,2017-02-01T02:00:00Z,28.8425,-94.2433,2.0,211.8008119,13.37831828,-99999.0,'11111222,11111222,99999999' 
TABS,ioos:station:wmo:42050:1,2017-02-01T02:30:00Z,28.8425,-94.2433,2.0,155.5296155,14.43675864,-99999.0,'11111222,11111222,99999999' 
TABS,ioos:station:wmo:42050:1,2017-02-01T03:00:00Z,28.8425,-94.2433,2.0,68.83002261,17.69412614,-99999.0,'11111222,11111222,99999999' 
TABS,ioos:station:wmo:42050:1,2017-02-01T03:30:00Z,28.8425,-94.2433,2.0,75.49986714,2.99541316,-99999.0,'11133222,11111222,99999999' 
TABS,ioos:station:wmo:42050:1,2017-02-01T04:00:00Z,28.8425,-94.2433,2.0,185.6357171,9.164300301,-99999.0,'11133222,11111222,99999999' 
TABS,ioos:station:wmo:42050:1,2017-02-01T04:30:00Z,28.8425,-94.2433,2.0,288.1537449,13.51257562,-99999.0,'11111222,11111222,99999999' 
TABS,ioos:station:wmo:42050:1,2017-02-01T05:00:00Z,28.8425,-94.2433,2.0,294.6171746,44.98886084,-99999.0,'11111222,11111222,99999999' 
TABS,ioos:station:wmo:42050:1,2017-02-01T05:30:00Z,28.8425,-94.2433,2.0,350.6503055,10.89474185,-99999.0,'11111222,11111222,99999999' 
TABS,ioos:station:wmo:42050:1,2017-02-01T06:00:00Z,28.8425,-94.2433,2.0,239.8065452,18.23366392,-99999.0,'11111222,11111222,99999999' 
TABS,ioos:station:wmo:42050:1,2017-02-01T06:30:00Z,28.8425,-94.2433,2.0,202.9619185,16.86645487,-99999.0,'11111222,11111222,99999999' 
TABS,ioos:station:wmo:42050:1,2017-02-01T07:00:00Z,28.8425,-94.2433,2.0,290.4384913,15.92231139,-99999.0,'11111222,11111222,99999999' 
TABS,ioos:station:wmo:42050:1,2017-02-01T07:30:00Z,28.8425,-94.2433,2.0,264.8989111,34.30585081,-99999.0,'11111222,11111222,99999999' 
TABS,ioos:station:wmo:42050:1,2017-02-01T08:00:00Z,28.8425,-94.2433,2.0,325.483237,17.29458008,-99999.0,'11111222,11111222,99999999' 
TABS,ioos:station:wmo:42050:1,2017-02-01T08:30:00Z,28.8425,-94.2433,2.0,193.0603305,31.90533654,-99999.0,'11111222,11111222,99999999' 
TABS,ioos:station:wmo:42050:1,2017-02-01T09:00:00Z,28.8425,-94.2433,2.0,246.9572924,18.77820279,-99999.0,'11111222,11111222,99999999' 
TABS,ioos:station:wmo:42050:1,2017-02-01T09:30:00Z,28.8425,-94.2433,2.0,337.0635315,17.52565263,-99999.0,'11111222,11111222,99999999' 
TABS,ioos:station:wmo:42050:1,2017-02-01T10:00:00Z,28.8425,-94.2433,2.0,295.8128961,35.41342683,-99999.0,'11111222,11111222,99999999' 
TABS,ioos:station:wmo:42050:1,2017-02-01T10:30:00Z,28.8425,-94.2433,2.0,256.2725146,5.394070819,-99999.0,'11133222,11111222,99999999' 
TABS,ioos:station:wmo:42050:1,2017-02-01T11:00:00Z,28.8425,-94.2433,2.0,2.550751332,15.50536036,-99999.0,'11111222,11111222,99999999' 
TABS,ioos:station:wmo:42050:1,2017-02-01T11:30:00Z,28.8425,-94.2433,2.0,255.2295572,17.61195617,-99999.0,'11111222,11111222,99999999' 
TABS,ioos:station:wmo:42050:1,2017-02-01T12:00:00Z,28.8425,-94.2433,2.0,9.554477789,14.33889814,-99999.0,'11111222,11111222,99999999' 
TABS,ioos:station:wmo:42050:1,2017-02-01T12:30:00Z,28.8425,-94.2433,2.0,126.9913076,11.31802545,-99999.0,'11111222,11111222,99999999' 
TABS,ioos:station:wmo:42050:1,2017-02-01T13:00:00Z,28.8425,-94.2433,2.0,257.548317,11.22399216,-99999.0,'11111222,11111222,99999999' 
TABS,ioos:station:wmo:42050:1,2017-02-01T13:30:00Z,28.8425,-94.2433,2.0,267.1412571,14.03746416,-99999.0,'11111222,11111222,99999999' 
TABS,ioos:station:wmo:42050:1,2017-02-01T14:00:00Z,28.8425,-94.2433,2.0,223.5807392,25.41413977,-99999.0,'11111222,11111222,99999999' 
TABS,ioos:station:wmo:42050:1,2017-02-01T14:30:00Z,28.8425,-94.2433,2.0,199.7986196,16.20810291,-99999.0,'11111222,11111222,99999999' 
TABS,ioos:station:wmo:42050:1,2017-02-01T15:00:00Z,28.8425,-94.2433,2.0,323.101491,19.82000252,-99999.0,'11111222,11111222,99999999' 
TABS,ioos:station:wmo:42050:1,2017-02-01T15:30:00Z,28.8425,-94.2433,2.0,293.1631804,44.15967504,-99999.0,'11111222,11111222,99999999' 
TABS,ioos:station:wmo:42050:1,2017-02-01T16:00:00Z,28.8425,-94.2433,2.0,320.7807303,20.78147252,-99999.0,'11111222,11111222,99999999' 
TABS,ioos:station:wmo:42050:1,2017-02-01T16:30:00Z,28.8425,-94.2433,2.0,239.6777521,16.38085773,-99999.0,'11111222,11111222,99999999' 
TABS,ioos:station:wmo:42050:1,2017-02-01T17:00:00Z,28.8425,-94.2433,2.0,295.4586401,38.89695104,-99999.0,'11111222,11111222,99999999' 
TABS,ioos:station:wmo:42050:1,2017-02-01T17:30:00Z,28.8425,-94.2433,2.0,300.9838865,34.77134021,-99999.0,'11111222,11111222,99999999' 
TABS,ioos:station:wmo:42050:1,2017-02-01T18:00:00Z,28.8425,-94.2433,2.0,231.7176292,29.13484855,-99999.0,'11111222,11111222,99999999' 
TABS,ioos:station:wmo:42050:1,2017-02-01T18:30:00Z,28.8425,-94.2433,2.0,346.657408,4.809833677,-99999.0,'11133222,11111222,99999999' 
TABS,ioos:station:wmo:42050:1,2017-02-01T19:00:00Z,28.8425,-94.2433,2.0,236.8951489,12.21236259,-99999.0,'11111222,11111222,99999999' 
TABS,ioos:station:wmo:42050:1,2017-02-01T19:30:00Z,28.8425,-94.2433,2.0,259.1164951,17.90197754,-99999.0,'11111222,11111222,99999999' 
TABS,ioos:station:wmo:42050:1,2017-02-01T20:00:00Z,28.8425,-94.2433,2.0,17.34850082,12.00616508,-99999.0,'11111222,11111222,99999999' 
TABS,ioos:station:wmo:42050:1,2017-02-01T20:30:00Z,28.8425,-94.2433,2.0,306.0243667,25.198746,-99999.0,'11111222,11111222,99999999' 
TABS,ioos:station:wmo:42050:1,2017-02-01T21:00:00Z,28.8425,-94.2433,2.0,289.0814907,28.601458,-99999.0,'11111222,11111222,99999999' 
TABS,ioos:station:wmo:42050:1,2017-02-01T21:30:00Z,28.8425,-94.2433,2.0,340.6654471,3.624417195,-99999.0,'11133222,11111222,99999999' 
TABS,ioos:station:wmo:42050:1,2017-02-01T22:00:00Z,28.8425,-94.2433,2.0,19.6887694,9.973048681,-99999.0,'11133222,11111222,99999999' 
TABS,ioos:station:wmo:42050:1,2017-02-01T22:30:00Z,28.8425,-94.2433,2.0,9.044563056,7.888073276,-99999.0,'11133222,11111222,99999999' 
TABS,ioos:station:wmo:42050:1,2017-02-01T23:00:00Z,28.8425,-94.2433,2.0,15.94556907,8.663330768,-99999.0,'11133222,11111222,99999999' 
TABS,ioos:station:wmo:42050:1,2017-02-01T23:30:00Z,28.8425,-94.2433,2.0,26.39262279,7.423779361,-99999.0,'11133222,11111222,99999999' 
TABS,ioos:station:wmo:42050:1,2017-02-02T00:00:00Z,28.8425,-94.2433,2.0,32.58772489,7.92813345,-99999.0,'11133222,11111222,99999999' 
TABS,ioos:station:wmo:42050:1,2017-02-02T00:30:00Z,28.8425,-94.2433,2.0,34.20254941,7.13372974,-99999.0,'11133222,11111222,99999999' 
TABS,ioos:station:wmo:42050:1,2017-02-02T01:00:00Z,28.8425,-94.2433,2.0,47.5657349,6.476519127,-99999.0,'11133222,11111222,99999999' 
TABS,ioos:station:wmo:42050:1,2017-02-02T01:30:00Z,28.8425,-94.2433,2.0,61.7252009,5.995331517,-99999.0,'11133222,11111222,99999999' 
TABS,ioos:station:wmo:42050:1,2017-02-02T02:00:00Z,28.8425,-94.2433,2.0,69.55554517,7.214429984,-99999.0,'11133222,11111222,99999999' 
TABS,ioos:station:wmo:42050:1,2017-02-02T02:30:00Z,28.8425,-94.2433,2.0,81.36921839,6.796969913,-99999.0,'11133222,11111222,99999999' 
TABS,ioos:station:wmo:42050:1,2017-02-02T03:00:00Z,28.8425,-94.2433,2.0,96.6207606,6.765116407,-99999.0,'11133222,11111222,99999999' 
TABS,ioos:station:wmo:42050:1,2017-02-02T03:30:00Z,28.8425,-94.2433,2.0,107.4330913,7.777229584,-99999.0,'11133222,11111222,99999999' 
TABS,ioos:station:wmo:42050:1,2017-02-02T04:00:00Z,28.8425,-94.2433,2.0,126.9075183,6.078001316,-99999.0,'11133222,11111222,99999999' 
TABS,ioos:station:wmo:42050:1,2017-02-02T04:30:00Z,28.8425,-94.2433,2.0,128.524516,5.956483862,-99999.0,'11133222,11111222,99999999' 
TABS,ioos:station:wmo:42050:1,2017-02-02T05:00:00Z,28.8425,-94.2433,2.0,105.6468601,4.74587189,-99999.0,'11133222,11111222,99999999' 
TABS,ioos:station:wmo:42050:1,2017-02-02T05:30:00Z,28.8425,-94.2433,2.0,112.3929178,4.856191924,-99999.0,'11133222,11111222,99999999' 
TABS,ioos:station:wmo:42050:1,2017-02-02T06:00:00Z,28.8425,-94.2433,2.0,104.5636585,4.215447782,-99999.0,'11133222,11111222,99999999' 
TABS,ioos:station:wmo:42050:1,2017-02-02T06:30:00Z,28.8425,-94.2433,2.0,78.72552727,3.171198512,-99999.0,'11133222,11111222,99999999' 
TABS,ioos:station:wmo:42050:1,2017-02-02T07:00:00Z,28.8425,-94.2433,2.0,78.14542566,4.332401182,-99999.0,'11133222,11111222,99999999' 
TABS,ioos:station:wmo:42050:1,2017-02-02T07:30:00Z,28.8425,-94.2433,2.0,73.81355025,6.528805404,-99999.0,'11133222,11111222,99999999' 
TABS,ioos:station:wmo:42050:1,2017-02-02T08:00:00Z,28.8425,-94.2433,2.0,78.63219036,7.762280593,-99999.0,'11133222,11111222,99999999' 
TABS,ioos:station:wmo:42050:1,2017-02-02T08:30:00Z,28.8425,-94.2433,2.0,65.20517386,6.080534516,-99999.0,'11133222,11111222,99999999' 
TABS,ioos:station:wmo:42050:1,2017-02-02T09:00:00Z,28.8425,-94.2433,2.0,64.77894378,6.101671902,-99999.0,'11133222,11111222,99999999' 
TABS,ioos:station:wmo:42050:1,2017-02-02T09:30:00Z,28.8425,-94.2433,2.0,59.51758798,8.575231775,-99999.0,'11133222,11111222,99999999' 
TABS,ioos:station:wmo:42050:1,2017-02-02T10:00:00Z,28.8425,-94.2433,2.0,50.97281111,8.76621355,-99999.0,'11133222,11111222,99999999' 
TABS,ioos:station:wmo:42050:1,2017-02-02T10:30:00Z,28.8425,-94.2433,2.0,45.04813174,8.435786863,-99999.0,'11133222,11111222,99999999' 
TABS,ioos:station:wmo:42050:1,2017-02-02T11:00:00Z,28.8425,-94.2433,2.0,48.08330803,9.071168613,-99999.0,'11133222,11111222,99999999' 
TABS,ioos:station:wmo:42050:1,2017-02-02T11:30:00Z,28.8425,-94.2433,2.0,52.41471818,6.246487013,-99999.0,'11133222,11111222,99999999' 
TABS,ioos:station:wmo:42050:1,2017-02-02T12:00:00Z,28.8425,-94.2433,2.0,48.69680729,7.347986119,-99999.0,'11133222,11111222,99999999' 
TABS,ioos:station:wmo:42050:1,2017-02-02T12:30:00Z,28.8425,-94.2433,2.0,73.58280556,5.838021925,-99999.0,'11133222,11111222,99999999' 
TABS,ioos:station:wmo:42050:1,2017-02-02T13:00:00Z,28.8425,-94.2433,2.0,55.78783755,5.47789193,-99999.0,'11133222,11111222,99999999' 
TABS,ioos:station:wmo:42050:1,2017-02-02T13:30:00Z,28.8425,-94.2433,2.0,103.7472581,3.366437286,-99999.0,'11133222,11111222,99999999' 
TABS,ioos:station:wmo:42050:1,2017-02-02T14:00:00Z,28.8425,-94.2433,2.0,136.0049784,3.628015987,-99999.0,'11133222,11111222,99999999' 
TABS,ioos:station:wmo:42050:1,2017-02-02T14:30:00Z,28.8425,-94.2433,2.0,138.2920342,3.201405941,-99999.0,'11133222,11111222,99999999' 
TABS,ioos:station:wmo:42050:1,2017-02-02T15:00:00Z,28.8425,-94.2433,2.0,157.4027093,3.877692613,-99999.0,'11133222,11111222,99999999' 
TABS,ioos:station:wmo:42050:1,2017-02-02T15:30:00Z,28.8425,-94.2433,2.0,144.367037,6.299468232,-99999.0,'11133222,11111222,99999999' 
TABS,ioos:station:wmo:42050:1,2017-02-02T16:00:00Z,28.8425,-94.2433,2.0,141.9323342,5.741254218,-99999.0,'11133222,11111222,99999999' 
TABS,ioos:station:wmo:42050:1,2017-02-02T16:30:00Z,28.8425,-94.2433,2.0,174.5307074,6.610090771,-99999.0,'11133222,11111222,99999999' 
TABS,ioos:station:wmo:42050:1,2017-02-02T17:00:00Z,28.8425,-94.2433,2.0,187.2630173,5.141254711,-99999.0,'11133222,11111222,99999999' 
TABS,ioos:station:wmo:42050:1,2017-02-02T17:30:00Z,28.8425,-94.2433,2.0,182.9106206,2.363048878,-99999.0,'11133222,11111222,99999999' 
TABS,ioos:station:wmo:42050:1,2017-02-02T18:00:00Z,28.8425,-94.2433,2.0,204.853467,2.545780823,-99999.0,'11133222,11111222,99999999' 
TABS,ioos:station:wmo:42050:1,2017-02-02T18:30:00Z,28.8425,-94.2433,2.0,147.0188691,1.120580207,-99999.0,'11133222,11111222,99999999' 
TABS,ioos:station:wmo:42050:1,2017-02-02T19:00:00Z,28.8425,-94.2433,2.0,217.1039377,0.97800818,-99999.0,'11133222,11111222,99999999' 
TABS,ioos:station:wmo:42050:1,2017-02-02T19:30:00Z,28.8425,-94.2433,2.0,308.9787396,1.685140944,-99999.0,'11133222,11111222,99999999' 
TABS,ioos:station:wmo:42050:1,2017-02-02T20:00:00Z,28.8425,-94.2433,2.0,319.2761468,4.552296124,-99999.0,'11133222,11111222,99999999' 
TABS,ioos:station:wmo:42050:1,2017-02-02T20:30:00Z,28.8425,-94.2433,2.0,340.260288,4.026623896,-99999.0,'11133222,11111222,99999999' 
TABS,ioos:station:wmo:42050:1,2017-02-02T21:00:00Z,28.8425,-94.2433,2.0,330.4355731,5.127621281,-99999.0,'11133222,11111222,99999999' 
TABS,ioos:station:wmo:42050:1,2017-02-02T21:30:00Z,28.8425,-94.2433,2.0,352.2300786,5.177538025,-99999.0,'11133222,11111222,99999999' 
TABS,ioos:station:wmo:42050:1,2017-02-02T22:00:00Z,28.8425,-94.2433,2.0,341.1813486,4.247034259,-99999.0,'11133222,11111222,99999999' 
TABS,ioos:station:wmo:42050:1,2017-02-02T22:30:00Z,28.8425,-94.2433,2.0,7.770565594,4.955501993,-99999.0,'11133222,11111222,99999999' 
TABS,ioos:station:wmo:42050:1,2017-02-02T23:00:00Z,28.8425,-94.2433,2.0,355.1011295,4.91796706,-99999.0,'11133222,11111222,99999999' 
TABS,ioos:station:wmo:42050:1,2017-02-02T23:30:00Z,28.8425,-94.2433,2.0,357.1378119,3.804747035,-99999.0,'11133222,11111222,99999999' 
TABS,ioos:station:wmo:42050:1,2017-02-03T00:00:00Z,28.8425,-94.2433,2.0,30.1780467,7.877670976,-99999.0,'11133222,11111222,99999999' 
TABS,ioos:station:wmo:42050:1,2017-02-03T00:30:00Z,28.8425,-94.2433,2.0,22.15773291,4.480915085,-99999.0,'11133222,11111222,99999999' 
TABS,ioos:station:wmo:42050:1,2017-02-03T01:00:00Z,28.8425,-94.2433,2.0,42.54494927,5.117079245,-99999.0,'11133222,11111222,99999999' 
TABS,ioos:station:wmo:42050:1,2017-02-03T01:30:00Z,28.8425,-94.2433,2.0,96.75355824,1.530620789,-99999.0,'11133222,11111222,99999999' 
TABS,ioos:station:wmo:42050:1,2017-02-03T02:00:00Z,28.8425,-94.2433,2.0,57.20054543,3.212102115,-99999.0,'11133222,11111222,99999999' 
TABS,ioos:station:wmo:42050:1,2017-02-03T02:30:00Z,28.8425,-94.2433,2.0,207.1808371,1.663730747,-99999.0,'11133222,11111222,99999999' 
TABS,ioos:station:wmo:42050:1,2017-02-03T03:00:00Z,28.8425,-94.2433,2.0,199.5156169,0.838152731,-99999.0,'11133222,11111222,99999999' 
TABS,ioos:station:wmo:42050:1,2017-02-03T03:30:00Z,28.8425,-94.2433,2.0,171.2790504,3.429650128,-99999.0,'11133222,11111222,99999999' 
TABS,ioos:station:wmo:42050:1,2017-02-03T04:00:00Z,28.8425,-94.2433,2.0,184.6856784,3.6722745,-99999.0,'11133222,11111222,99999999' 
TABS,ioos:station:wmo:42050:1,2017-02-03T04:30:00Z,28.8425,-94.2433,2.0,174.6267083,9.29082343,-99999.0,'11133222,11111222,99999999' 
TABS,ioos:station:wmo:42050:1,2017-02-03T05:00:00Z,28.8425,-94.2433,2.0,196.6409818,10.4058301,-99999.0,'11111222,11111222,99999999' 
TABS,ioos:station:wmo:42050:1,2017-02-03T05:30:00Z,28.8425,-94.2433,2.0,201.8598375,14.50281352,-99999.0,'11111222,11111222,99999999' 
TABS,ioos:station:wmo:42050:1,2017-02-03T06:00:00Z,28.8425,-94.2433,2.0,218.5121959,20.65248653,-99999.0,'11111222,11111222,99999999' 
TABS,ioos:station:wmo:42050:1,2017-02-03T06:30:00Z,28.8425,-94.2433,2.0,237.5426694,24.74535916,-99999.0,'11111222,11111222,99999999' 
TABS,ioos:station:wmo:42050:1,2017-02-03T07:00:00Z,28.8425,-94.2433,2.0,249.9006868,28.314325,-99999.0,'11111222,11111222,99999999' 
TABS,ioos:station:wmo:42050:1,2017-02-03T07:30:00Z,28.8425,-94.2433,2.0,250.5079143,28.29138561,-99999.0,'11111222,11111222,99999999' 
TABS,ioos:station:wmo:42050:1,2017-02-03T08:00:00Z,28.8425,-94.2433,2.0,259.9884698,31.58085021,-99999.0,'11111222,11111222,99999999' 
TABS,ioos:station:wmo:42050:1,2017-02-03T08:30:00Z,28.8425,-94.2433,2.0,257.1256754,29.89139006,-99999.0,'11111222,11111222,99999999' 
TABS,ioos:station:wmo:42050:1,2017-02-03T09:00:00Z,28.8425,-94.2433,2.0,264.4480193,28.32284767,-99999.0,'11111222,11111222,99999999' 
TABS,ioos:station:wmo:42050:1,2017-02-03T09:30:00Z,28.8425,-94.2433,2.0,261.8289468,29.97426396,-99999.0,'11111222,11111222,99999999' 
TABS,ioos:station:wmo:42050:1,2017-02-03T10:00:00Z,28.8425,-94.2433,2.0,262.5396636,32.04120004,-99999.0,'11111222,11111222,99999999' 
TABS,ioos:station:wmo:42050:1,2017-02-03T10:30:00Z,28.8425,-94.2433,2.0,267.9630878,29.82884007,-99999.0,'11111222,11111222,99999999' 
TABS,ioos:station:wmo:42050:1,2017-02-03T11:00:00Z,28.8425,-94.2433,2.0,269.1285056,31.57364882,-99999.0,'11111222,11111222,99999999' 
TABS,ioos:station:wmo:42050:1,2017-02-03T11:30:00Z,28.8425,-94.2433,2.0,268.9783745,28.05445597,-99999.0,'11111222,11111222,99999999' 
TABS,ioos:station:wmo:42050:1,2017-02-03T12:00:00Z,28.8425,-94.2433,2.0,266.8715433,26.38931791,-99999.0,'11111222,11111222,99999999' 
TABS,ioos:station:wmo:42050:1,2017-02-03T12:30:00Z,28.8425,-94.2433,2.0,267.9677697,27.07702347,-99999.0,'11111222,11111222,99999999' 
TABS,ioos:station:wmo:42050:1,2017-02-03T13:00:00Z,28.8425,-94.2433,2.0,269.3067997,24.81181372,-99999.0,'11111222,11111222,99999999' 
TABS,ioos:station:wmo:42050:1,2017-02-03T13:30:00Z,28.8425,-94.2433,2.0,263.2665211,25.92882759,-99999.0,'11111222,11111222,99999999' 
TABS,ioos:station:wmo:42050:1,2017-02-03T14:00:00Z,28.8425,-94.2433,2.0,261.0973087,23.71568679,-99999.0,'11111222,11111222,99999999' 
TABS,ioos:station:wmo:42050:1,2017-02-03T14:30:00Z,28.8425,-94.2433,2.0,257.7307205,23.67061047,-99999.0,'11111222,11111222,99999999' 
TABS,ioos:station:wmo:42050:1,2017-02-03T15:00:00Z,28.8425,-94.2433,2.0,257.5434081,22.25382888,-99999.0,'11111222,11111222,99999999' 
TABS,ioos:station:wmo:42050:1,2017-02-03T15:30:00Z,28.8425,-94.2433,2.0,256.7800468,23.48225926,-99999.0,'11111222,11111222,99999999' 
TABS,ioos:station:wmo:42050:1,2017-02-03T16:00:00Z,28.8425,-94.2433,2.0,282.0071011,24.9968498,-99999.0,'11111222,11111222,99999999' 
TABS,ioos:station:wmo:42050:1,2017-02-03T16:30:00Z,28.8425,-94.2433,2.0,253.1807362,20.18335948,-99999.0,'11111222,11111222,99999999' 
TABS,ioos:station:wmo:42050:1,2017-02-03T17:00:00Z,28.8425,-94.2433,2.0,249.8961558,19.11458605,-99999.0,'11111222,11111222,99999999' 
TABS,ioos:station:wmo:42050:1,2017-02-03T17:30:00Z,28.8425,-94.2433,2.0,252.7768199,17.19082604,-99999.0,'11111222,11111222,99999999' 
TABS,ioos:station:wmo:42050:1,2017-02-03T18:00:00Z,28.8425,-94.2433,2.0,255.3895005,17.91943079,-99999.0,'11111222,11111222,99999999' 
TABS,ioos:station:wmo:42050:1,2017-02-03T18:30:00Z,28.8425,-94.2433,2.0,256.453458,15.02805709,-99999.0,'11111222,11111222,99999999' 
TABS,ioos:station:wmo:42050:1,2017-02-03T19:00:00Z,28.8425,-94.2433,2.0,257.0186952,15.67045947,-99999.0,'11111222,11111222,99999999' 
TABS,ioos:station:wmo:42050:1,2017-02-03T19:30:00Z,28.8425,-94.2433,2.0,266.9308684,9.153125149,-99999.0,'11133222,11111222,99999999' 
TABS,ioos:station:wmo:42050:1,2017-02-03T20:00:00Z,28.8425,-94.2433,2.0,273.6093513,10.961738,-99999.0,'11111222,11111222,99999999' 
TABS,ioos:station:wmo:42050:1,2017-02-03T20:30:00Z,28.8425,-94.2433,2.0,268.4274203,8.38315573,-99999.0,'11133222,11111222,99999999' 
TABS,ioos:station:wmo:42050:1,2017-02-03T21:00:00Z,28.8425,-94.2433,2.0,262.1722311,8.297306792,-99999.0,'11133222,11111222,99999999' 
TABS,ioos:station:wmo:42050:1,2017-02-03T21:30:00Z,28.8425,-94.2433,2.0,257.1604685,8.010274652,-99999.0,'11133222,11111222,99999999' 
TABS,ioos:station:wmo:42050:1,2017-02-03T22:00:00Z,28.8425,-94.2433,2.0,279.2541746,8.581683984,-99999.0,'11133222,11111222,99999999' 
TABS,ioos:station:wmo:42050:1,2017-02-03T22:30:00Z,28.8425,-94.2433,2.0,284.1014273,8.578490543,-99999.0,'11133222,11111222,99999999' 
TABS,ioos:station:wmo:42050:1,2017-02-03T23:00:00Z,28.8425,-94.2433,2.0,288.1858552,6.536489884,-99999.0,'11133222,11111222,99999999' 
TABS,ioos:station:wmo:42050:1,2017-02-03T23:30:00Z,28.8425,-94.2433,2.0,280.2473616,7.08297254,-99999.0,'11133222,11111222,99999999' 
TABS,ioos:station:wmo:42050:1,2017-02-04T03:00:00Z,28.8425,-94.2433,2.0,265.9854128,7.999624991,-99999.0,'11133222,11111222,99999999' 
TABS,ioos:station:wmo:42050:1,2017-02-04T12:00:00Z,28.8425,-94.2433,2.0,273.0035666,25.00433962,-99999.0,'11111222,11111222,99999999' 
TABS,ioos:station:wmo:42050:1,2017-02-04T12:30:00Z,28.8425,-94.2433,2.0,273.0094376,24.00309355,-99999.0,'11111222,11111222,99999999' 
TABS,ioos:station:wmo:42050:1,2017-02-04T13:00:00Z,28.8425,-94.2433,2.0,278.9960428,22.00060226,-99999.0,'11111222,11111222,99999999' 
TABS,ioos:station:wmo:42050:1,2017-02-04T13:30:00Z,28.8425,-94.2433,2.0,281.0013323,24.00104164,-99999.0,'11111222,11111222,99999999' 
TABS,ioos:station:wmo:42050:1,2017-02-04T14:00:00Z,28.8425,-94.2433,2.0,272.9909445,23.00132387,-99999.0,'11111222,11111222,99999999' 
TABS,ioos:station:wmo:42050:1,2017-02-04T14:30:00Z,28.8425,-94.2433,2.0,265.9854128,19.99906248,-99999.0,'11111222,11111222,99999999' 
TABS,ioos:station:wmo:42050:1,2017-02-04T15:00:00Z,28.8425,-94.2433,2.0,270.0004209,27.0,-99999.0,'11111222,11111222,99999999' 
TABS,ioos:station:wmo:42050:1,2017-02-04T15:30:00Z,28.8425,-94.2433,2.0,276.0031653,24.00160411,-99999.0,'11111222,11111222,99999999' 
TABS,ioos:station:wmo:42050:1,2017-02-04T16:00:00Z,28.8425,-94.2433,2.0,282.0071011,24.9968498,-99999.0,'11111222,11111222,99999999' 
TABS,ioos:station:wmo:42050:1,2017-02-04T16:30:00Z,28.8425,-94.2433,2.0,278.0027446,26.00320942,-99999.0,'11111222,11111222,99999999' 
TABS,ioos:station:wmo:42050:1,2017-02-04T17:00:00Z,28.8425,-94.2433,2.0,8.99143671,23.9948432,-99999.0,'11111222,11111222,99999999' 
TABS,ioos:station:wmo:42050:1,2017-02-04T17:30:00Z,28.8425,-94.2433,2.0,277.9966526,23.00366058,-99999.0,'11111222,11111222,99999999' 
TABS,ioos:station:wmo:42050:1,2017-02-04T18:00:00Z,28.8425,-94.2433,2.0,273.0031628,20.99883092,-99999.0,'11111222,11111222,99999999' 
TABS,ioos:station:wmo:42050:1,2017-02-04T18:30:00Z,28.8425,-94.2433,2.0,255.0094768,21.9986045,-99999.0,'11111222,11111222,99999999' 
TABS,ioos:station:wmo:42050:1,2017-02-04T19:00:00Z,28.8425,-94.2433,2.0,266.0092292,23.99817701,-99999.0,'11111222,11111222,99999999' 
TABS,ioos:station:wmo:42050:1,2017-02-04T19:30:00Z,28.8425,-94.2433,2.0,273.0031628,20.99883092,-99999.0,'11111222,11111222,99999999' 
TABS,ioos:station:wmo:42050:1,2017-02-04T20:00:00Z,28.8425,-94.2433,2.0,266.0092292,23.99817701,-99999.0,'11111222,11111222,99999999' 
TABS,ioos:station:wmo:42050:1,2017-02-04T20:30:00Z,28.8425,-94.2433,2.0,279.0043028,59.99933083,-99999.0,'11111222,11111222,99999999' 
TABS,ioos:station:wmo:42050:1,2017-02-04T21:00:00Z,28.8425,-94.2433,2.0,275.993816,24.99663377,-99999.0,'11111222,11111222,99999999' 
TABS,ioos:station:wmo:42050:1,2017-02-04T21:30:00Z,28.8425,-94.2433,2.0,273.0035666,25.00433962,-99999.0,'11111222,11111222,99999999' 
TABS,ioos:station:wmo:42050:1,2017-02-04T22:00:00Z,28.8425,-94.2433,2.0,282.0104954,25.99909614,-99999.0,'11111222,11111222,99999999' 
TABS,ioos:station:wmo:42050:1,2017-02-04T22:30:00Z,28.8425,-94.2433,2.0,278.9985537,28.00464247,-99999.0,'11111222,11111222,99999999' 
TABS,ioos:station:wmo:42050:1,2017-02-04T23:00:00Z,28.8425,-94.2433,2.0,285.0042876,28.00473174,-99999.0,'11111222,11111222,99999999' 
TABS,ioos:station:wmo:42050:1,2017-02-04T23:30:00Z,28.8425,-94.2433,2.0,283.9975486,32.00015781,-99999.0,'11111222,11111222,99999999' 
TABS,ioos:station:wmo:42050:1,2017-02-05T00:00:00Z,28.8425,-94.2433,2.0,282.0071011,24.9968498,-99999.0,'11111222,11111222,99999999' 
TABS,ioos:station:wmo:42050:1,2017-02-05T00:30:00Z,28.8425,-94.2433,2.0,279.0062494,26.00052499,-99999.0,'11111222,11111222,99999999' 
TABS,ioos:station:wmo:42050:1,2017-02-05T01:00:00Z,28.8425,-94.2433,2.0,278.9917798,27.00180179,-99999.0,'11111222,11111222,99999999' 
TABS,ioos:station:wmo:42050:1,2017-02-05T01:30:00Z,28.8425,-94.2433,2.0,277.9966526,23.00366058,-99999.0,'11111222,11111222,99999999' 
TABS,ioos:station:wmo:42050:1,2017-02-05T02:00:00Z,28.8425,-94.2433,2.0,281.0025777,23.00279331,-99999.0,'11111222,11111222,99999999' 
TABS,ioos:station:wmo:42050:1,2017-02-05T02:30:00Z,28.8425,-94.2433,2.0,273.0031628,20.99883092,-99999.0,'11111222,11111222,99999999' 
TABS,ioos:station:wmo:42050:1,2017-02-05T03:00:00Z,28.8425,-94.2433,2.0,278.0008763,25.00335977,-99999.0,'11111222,11111222,99999999' 
TABS,ioos:station:wmo:42050:1,2017-02-05T03:30:00Z,28.8425,-94.2433,2.0,260.9958964,23.00344322,-99999.0,'11111222,11111222,99999999' 